sat.trackr.live / text

‹ back to catalog

STARLINK-34839

NORAD 65703 · 2025-212AD

PAYLOAD ACTIVE UNKNOWN

§ Identity

Operator
Country
US
Launch date
2025-09-21
Launch site
AFETR
Launch vehicle
Mass (kg)
RCS (m²)

Purposes: comms

External: N2YO · Heavens-Above · Gunter

§ Orbital elements

Epoch: 2026-09-20T23:17:09.228480Z

Period
94.01 min
Inclination
53.1612°
Eccentricity
0.0001214
Mean motion
15.31720330 rev/d
Perigee alt
469.8 km
Apogee alt
471.5 km
Semi-major
6,848.8 km
B*
4.5450e-4
RAAN
157.0728°
Arg perigee
65.8777°
Mean anomaly
294.2352°
Rev number
5,716

§ Raw data

STARLINK-348391 65703U 25212AD  26263.97024570  .00013773  00000+0  45450-3 0  99972 65703  53.1612 157.0728 0001214  65.8777 294.2352 15.31720330 57160

JSON: /api/v1/satellites/65703 · /tle

For live sub-satellite position, see the globe view (requires WebGL).

§ Visibility from observer

Set your observer location to see the next 7 days of passes ≥ 10°. The values pass through the URL so the page stays shareable.

No JS? Fill the form by hand. The geolocation button needs JavaScript.